Weather History for Cleveland, OH

Change the Weather History Date:

Sunday, April 7, 2013

  Actual Average Record
Temperature  
Mean Temperature 58 °F 47 °F  
Max Temperature 72 °F 56 °F 83 °F (1929)
Min Temperature 43 °F 38 °F 17 °F (1982)
Degree Days  
Heating Degree Days 7 19  
Month to date heating degree days 172 139  
Since 1 July heating degree days 5311 5182  
Cooling Degree Days 0 0  
Month to date cooling degree days 0 0  
Year to date cooling degree days 0 1  
Growing Degree Days 9 (Base 50)    
Moisture  
Dew Point 34 °F    
Average Humidity 42    
Maximum Humidity 65    
Minimum Humidity 18    
Precipitation  
Precipitation 0.00 in 0.13 in 0.68 in (1957)
Month to date precipitation 0.02 0.84  
Year to date precipitation 6.74 8.83  
Snow  
Snow 0.00 in 0.20 in - ()
Month to date snowfall 0.2 1.5  
Since 1 July snowfall 51.6 66.3  
Snow Depth 0.00 in    
Sea Level Pressure  
Sea Level Pressure 29.89 in    
Wind  
Wind Speed 17 mph (WSW)    
Max Wind Speed 37 mph    
Max Gust Speed 45 mph    
Visibility 10 miles    
Events      
T = Trace of Precipitation, MM = Missing Value Source: NWS Daily Summary

Daily Weather History Graph

Daily Weather History Graph

Search for Another Location

Airport:

Trip Planner

Search our weather history database for the weather conditions in past years. The results will help you decide how hot, cold, wet, or windy it might be!

Date:

Astronomy

Apr. 07, 2013 Rise Set
Actual Time 7:00 AM EDT 7:59 PM EDT
Civil Twilight 6:31 AM EDT 8:27 PM EDT
Nautical Twilight 5:58 AM EDT 9:01 PM EDT
Astronomical Twilight 5:23 AM EDT 9:36 PM EDT
Moon 5:18 AM EDT (4/7) 5:28 PM EDT (4/7)
Length of Visible Light 13h 55m
Length of Day
12h 59m
Waning Crescent, 8% of the Moon is Illuminated
Apr 7
Waning Crescent
Apr 10
New
Apr 18
First Quarter
Apr 25
Full
May 2
Last Quarter

Hourly Weather History & Observations

Time (EDT) Temp. Windchill Dew Point Humidity Pressure Visibility Wind Dir Wind Speed Gust Speed Precip Events Conditions
12:51 AM 55.0 °F - 12.0 °F 18% 29.90 in 10.0 mi South 17.3 mph 26.5 mph N/A   Overcast
1:51 AM 55.0 °F - 12.9 °F 19% 29.86 in 10.0 mi South 16.1 mph - N/A   Mostly Cloudy
2:51 AM 57.0 °F - 15.1 °F 19% 29.84 in 10.0 mi South 18.4 mph 29.9 mph N/A   Overcast
3:51 AM 55.9 °F - 19.0 °F 24% 29.81 in 10.0 mi South 16.1 mph 24.2 mph N/A   Overcast
4:51 AM 57.0 °F - 24.1 °F 28% 29.79 in 10.0 mi South 20.7 mph 27.6 mph N/A   Mostly Cloudy
5:51 AM 57.0 °F - 28.9 °F 34% 29.78 in 10.0 mi South 16.1 mph 27.6 mph N/A   Mostly Cloudy
6:51 AM 57.9 °F - 32.0 °F 37% 29.78 in 10.0 mi South 17.3 mph 25.3 mph N/A   Overcast
7:51 AM 57.2 °F - 35.6 °F 44% 29.79 in 10.0 mi SSW 15.0 mph 21.9 mph N/A   Overcast
8:51 AM 62.1 °F - 37.9 °F 41% 29.79 in 10.0 mi SW 25.3 mph 40.3 mph N/A   Overcast
9:51 AM 64.4 °F - 41.0 °F 42% 29.79 in 10.0 mi SW 27.6 mph 39.1 mph N/A   Overcast
10:51 AM 64.9 °F - 41.0 °F 42% 29.81 in 10.0 mi SW 26.5 mph 39.1 mph N/A   Overcast
11:51 AM 69.1 °F - 42.1 °F 38% 29.82 in 10.0 mi SW 24.2 mph 34.5 mph N/A   Scattered Clouds
12:51 PM 71.1 °F - 39.9 °F 32% 29.83 in 10.0 mi WSW 25.3 mph 35.7 mph N/A   Scattered Clouds
1:33 PM 66.9 °F - 44.1 °F 44% 29.85 in 10.0 mi WNW 19.6 mph 34.5 mph N/A   Mostly Cloudy
1:51 PM 68.0 °F - 45.0 °F 43% 29.85 in 10.0 mi WNW 15.0 mph 24.2 mph N/A   Mostly Cloudy
2:51 PM 63.0 °F - 43.0 °F 48% 29.88 in 10.0 mi NW 20.7 mph 27.6 mph N/A   Mostly Cloudy
3:51 PM 60.1 °F - 42.1 °F 51% 29.91 in 10.0 mi WNW 18.4 mph - N/A   Mostly Cloudy
4:51 PM 57.9 °F - 41.0 °F 53% 29.94 in 10.0 mi WNW 19.6 mph 25.3 mph N/A   Mostly Cloudy
5:51 PM 57.9 °F - 39.0 °F 49% 29.96 in 10.0 mi WNW 18.4 mph - N/A   Clear
6:51 PM 55.0 °F - 37.0 °F 51% 29.99 in 10.0 mi NW 10.4 mph - N/A   Mostly Cloudy
7:51 PM 52.0 °F - 37.0 °F 57% 30.01 in 10.0 mi North 13.8 mph - N/A   Mostly Cloudy
8:51 PM 46.9 °F - 35.1 °F 63% 30.03 in 10.0 mi NNE 8.1 mph - N/A   Mostly Cloudy
9:51 PM 46.0 °F 42.5 °F 35.1 °F 66% 30.05 in 10.0 mi NE 6.9 mph - N/A   Mostly Cloudy
10:51 PM 46.0 °F 41.9 °F 35.1 °F 66% 30.05 in 10.0 mi NNE 8.1 mph - N/A   Mostly Cloudy
11:51 PM 46.0 °F 41.4 °F 35.1 °F 66% 30.05 in 10.0 mi NE 9.2 mph - N/A   Overcast